Flag for Canada Weather past 2 weeks in Winnipeg, Manitoba, Canada

Now
52 °F

Cool.


Feels Like: 49 °F
Forecast: 52 / 70 °F
Wind: 8 mph from North

Location: Winnipeg The Forks

Current Time: May 27, 2015 at 9:52:24 AM

Latest Report: May 27, 2015 at 9:00 AM


Visibility: N/A

Pressure: 29.98 "Hg

Humidity: 70%

Dew point: 43 °F

Location of WinnipegLocation

Historic Weather in Winnipeg — Graph

°F

Winnipeg temperature yesterday

Maximum temperature yesterday: 85 °F (at 4:00 PM)
Minimum temperature yesterday: 58 °F (at 6:00 AM)
Average temperature yesterday: 71 °F

Past Weeks' High & Low Weather Summary

 TemperatureHumidityPressure
High85 °F (May 26, 4:00 PM)100% (May 14, 12:00 PM)30.44 "Hg (May 14, 12:00 PM)
Low31 °F (May 18, 9:00 AM)14% (May 22, 5:00 PM)29.70 "Hg (May 25, 6:00 PM)
Average56 °F55%30.04 "Hg
* Reported May 12 8:00 AM — May 27 8:00 AM, Winnipeg, Weather by CustomWeather, © 2015

Note: Actual official high and low records may vary slightly from our data, if they occured in-between our weather recording intervals... More about our weather records

Advertising

Winnipeg weather history for previous 24 hours

 ConditionsComfort  
Time TempWeatherWind HumidityBarometerVisibility
8:00 AM
Wed, May 27
49 °FCool.9 mph74%29.97 "HgN/A
7:00 AM48 °FCool.8 mph77%29.94 "HgN/A
6:00 AM49 °FCool.7 mph77%29.91 "HgN/A
5:00 AM49 °FCool.7 mph74%29.88 "HgN/A
4:00 AM50 °FCool.8 mph71%29.86 "HgN/A
3:00 AM52 °FCool.6 mph64%29.85 "HgN/A
2:00 AM53 °FCool.7 mph61%29.83 "HgN/A
1:00 AM55 °FCool.8 mph73%29.82 "HgN/A
12:00 AM61 °FCool.3 mph66%29.79 "HgN/A
11:00 PM
Tue, May 26
64 °FMild.3 mph59%29.78 "HgN/A
10:00 PM66 °FMild.5 mph57%29.77 "HgN/A
9:00 PM71 °FMild.5 mph51%29.74 "HgN/A
8:00 PM78 °FPleasantly warm.7 mph31%29.72 "HgN/A
7:00 PM82 °FPleasantly warm.6 mph21%29.71 "HgN/A
6:00 PM83 °FPleasantly warm.7 mph20%29.71 "HgN/A
5:00 PM85 °FPleasantly warm.5 mph17%29.70 "HgN/A
4:00 PM85 °FPleasantly warm.6 mph17%29.71 "HgN/A
3:00 PM83 °FPleasantly warm.5 mph20%29.72 "HgN/A
2:00 PM82 °FPleasantly warm.5 mph23%29.72 "HgN/A
1:00 PM81 °FPleasantly warm.5 mph26%29.74 "HgN/A
12:00 PM78 °FPleasantly warm.3 mph31%29.75 "HgN/A
11:00 AM75 °FMild.1 mph43%29.76 "HgN/A
10:00 AM70 °FMild.1 mph55%29.77 "HgN/A
9:00 AM66 °FMild.1 mph63%29.77 "HgN/A
Weather by CustomWeather, © 2015

See weather overviewHow to use our weather pages